Tracking 31027 objects as of 19-Jul-2025
HD Live streaming from Space Station
objects crossing your sky now

STARLINK-3391

Track STARLINK-3391 now!
10-day predictions
STARLINK-3391 is classified as:


NORAD ID: 51117
Int'l Code: 2022-005P
Perigee: 546.1 km
Apogee: 547.7 km
Inclination: 53.2 °
Period: 95.4 minutes
Semi major axis: 6917 km
RCS: Unknown
Launch date: January 19, 2022
Source: United States (US)
Launch site: AIR FORCE EASTERN TEST RANGE (AFETR)
Your satellite tracking list
XMM
Track 1 satellite(s)




NASA's NSSDC Master Catalog

Two Line Element Set (TLE):
1 51117U 22005P   25199.56245903  .00000460  00000-0  47008-4 0  9997
2 51117  53.2174 260.0508 0001178  81.6811 278.4315 15.08840936193537
Source of the keplerian elements: AFSPC